sat.trackr.live / text

‹ back to catalog

STARLINK-11664 [DTC]

NORAD 63666 · 2025-085C

PAYLOAD ACTIVE UNKNOWN

§ Identity

Operator
Country
US
Launch date
2025-04-28
Launch site
AFETR
Launch vehicle
Mass (kg)
RCS (m²)

Purposes: comms

External: N2YO · Heavens-Above · Gunter

§ Orbital elements

Epoch: 2026-05-25T06:24:58.076640Z

Period
89.45 min
Inclination
42.9871°
Eccentricity
0.0009883
Mean motion
16.09907267 rev/d
Perigee alt
240.5 km
Apogee alt
253.6 km
Semi-major
6,625.2 km
B*
1.8164e-3
RAAN
167.9497°
Arg perigee
101.4870°
Mean anomaly
258.7122°
Rev number
6,239

§ Raw data

STARLINK-11664 [DTC]1 63666U 25085C   26145.26733885  .01728701  22411-2  18164-2 0  99972 63666  42.9871 167.9497 0009883 101.4870 258.7122 16.09907267 62396

JSON: /api/v1/satellites/63666 · /tle

For live sub-satellite position, see the globe view (requires WebGL).

§ Visibility from observer

Set your observer location to see the next 7 days of passes ≥ 10°. The values pass through the URL so the page stays shareable.

No JS? Fill the form by hand. The geolocation button needs JavaScript.